User: anonymous   Login
Location: Unspecified
(0.0000°N, 0.0000°E)
Time: 19:59:23
(UTC+02:00)
Language:

ARIANE 5 R/B - Orbit

View from above orbital plane
View from above orbital plane
View from above satellite
View from above satellite

Ground track
Ground track

The orbit data is extracted from the following two-line orbital elements,

1 28379U 04027B   16242.28798860  .00000003  00000-0 -68284-3 0  9990
2 28379   7.2421  63.6023 7290655 242.6111  56.2724  2.07921549 92060
Epoch (UTC): 29 August 2016 06:54:42
Eccentricity: 0.7290655
inclination: 7.2421°
perigee height: 647 km
apogee height: 38456 km
right ascension of ascending node: 63.6023°
argument of perigee: 242.6111°
revolutions per day: 2.07921549
mean anomaly at epoch: 56.2724°
orbit number at epoch: 9206

The dashed part of the orbit path shows where the satellite is in the earth's shadow,  

DLR